Theta_e
316 318 309 301 290 287 284 287 290 293 298 308 312 310 308 311 308 300 323 327 335 342 344 344 345 346 346 346 347 347 348 347 348 347 346 346 345 343 343 343 343 343 343 340 339 339 339 338 336
308 310 302 294 285 281 284 288 289 295 306 310 314 314 309 306 316 323 321 327 333 342 343 342 345 345 345 346 346 346 348 347 347 347 346 345 344 343 343 342 342 342 343 340 340 340 338 337 336
308 304 296 288 282 282 283 290 292 300 309 309 310 316 314 308 318 321 325 329 332 340 338 340 343 344 345 345 345 346 347 345 345 345 345 344 343 343 343 341 341 342 341 339 339 339 338 336 336
305 300 294 289 284 288 289 293 294 304 305 310 311 306 314 320 321 327 330 329 331 331 336 338 341 343 345 345 345 346 346 343 343 343 344 343 342 343 342 340 341 341 338 337 338 338 336 335 334
300 295 287 284 286 290 292 294 300 305 305 307 307 302 310 319 326 329 328 329 329 330 334 337 340 341 343 344 345 344 344 343 342 342 342 341 341 341 341 340 340 338 337 335 336 336 336 334 332
294 292 285 283 286 292 293 299 304 306 308 308 306 305 307 321 322 325 329 330 329 329 330 335 340 340 339 340 340 340 342 342 341 341 341 340 340 339 340 338 337 336 336 338 338 336 334 333 331
293 289 285 284 287 289 295 304 302 305 305 305 311 306 309 318 323 327 329 329 332 331 329 330 332 334 336 334 333 336 338 340 340 340 340 339 338 337 337 336 335 335 335 337 336 334 332 332 330
294 291 286 286 286 288 297 305 306 305 305 315 314 309 307 317 327 330 331 332 332 333 332 330 329 330 327 328 332 332 337 338 339 339 339 338 337 337 334 333 333 333 333 334 335 333 332 331 330
294 287 284 287 287 291 304 302 305 309 309 314 316 314 319 326 327 326 325 327 328 329 324 325 324 324 324 324 326 330 333 334 337 339 337 334 332 329 327 330 331 331 329 331 333 333 331 329 329
292 286 288 293 293 294 300 303 303 302 304 310 309 316 320 322 322 323 322 322 324 325 323 324 322 321 321 323 325 324 323 331 334 336 334 332 328 325 327 329 329 328 328 328 330 331 330 325 322
291 289 292 295 296 295 295 301 306 303 302 307 308 311 317 317 319 321 321 322 322 324 324 323 321 320 320 320 320 321 319 326 331 332 331 328 326 327 324 323 323 321 323 316 317 314 314 315 315
289 294 294 295 296 299 300 305 305 304 307 313 311 314 314 313 316 318 318 319 321 322 323 323 321 320 320 318 319 319 320 322 322 328 329 327 325 322 321 319 318 315 313 312 311 309 308 310 312
291 294 296 298 299 300 307 305 306 307 313 314 314 315 313 312 314 316 316 317 319 321 322 323 322 321 318 316 317 318 320 320 323 324 327 326 321 320 319 318 315 314 313 311 308 306 306 306 308
297 297 297 297 299 302 303 304 306 306 314 312 312 309 312 311 312 314 315 315 317 319 322 322 321 321 318 316 316 317 319 319 322 324 323 321 319 318 318 316 314 312 312 311 308 306 303 302 303
298 293 294 295 295 301 304 297 301 306 312 311 310 313 313 314 313 312 315 314 316 317 319 322 321 319 319 319 318 319 320 319 321 323 321 319 317 316 316 314 313 312 311 311 308 306 302 300 301
292 291 287 293 299 299 299 291 296 307 310 308 307 308 310 311 311 313 314 314 315 315 317 319 323 319 318 318 320 323 323 322 322 321 319 318 318 317 315 313 313 313 312 312 309 307 304 300 300
289 284 286 290 295 298 296 293 297 308 308 306 306 309 309 309 309 312 311 313 313 315 316 317 321 320 320 319 319 320 320 322 321 319 318 318 318 318 316 315 314 315 313 312 310 307 306 301 299
285 285 285 287 291 296 294 295 299 306 306 307 306 304 306 306 307 308 310 313 314 314 316 316 318 320 319 318 316 316 315 314 317 319 319 319 320 320 318 317 316 315 314 311 309 306 305 304 301
290 288 287 289 292 291 291 291 295 299 302 303 304 303 303 305 308 308 309 310 312 313 315 315 316 317 316 316 316 315 314 313 313 316 319 321 322 323 320 319 318 316 313 313 310 307 304 302 302
291 288 287 290 294 292 291 293 295 297 300 303 304 302 304 304 304 307 307 311 310 312 314 315 315 316 317 316 317 318 316 315 314 313 315 318 319 321 321 319 317 315 313 311 309 306 303 303 301
289 287 287 288 291 292 292 291 292 298 300 302 303 304 304 305 304 305 306 309 310 311 311 314 314 315 316 317 316 314 315 313 312 312 311 314 317 317 319 319 317 315 313 311 309 307 304 302 301
287 292 292 291 288 284 291 283 289 292 297 300 302 302 304 306 307 305 305 307 308 310 310 312 313 313 314 316 314 314 313 311 313 312 311 312 316 317 317 318 318 316 314 312 311 310 306 305 303
291 294 292 291 288 285 287 283 287 294 295 298 300 303 304 307 308 306 306 306 308 307 308 307 311 312 312 312 313 314 314 314 313 310 310 311 312 316 317 315 315 316 315 314 313 311 308 308 307
296 293 291 290 287 281 286 285 284 288 294 297 300 303 304 306 309 308 307 306 305 306 308 307 308 309 309 308 309 309 310 308 308 308 308 308 310 311 314 315 315 315 315 313 312 311 310 309 309
293 288 282 280 280 280 288 285 288 294 296 298 300 302 304 306 308 308 305 305 305 305 306 308 308 308 309 308 307 307 307 308 307 308 308 308 309 310 312 312 313 313 314 314 314 313 313 311 310
290 289 282 278 278 281 289 285 290 297 300 299 300 303 304 305 309 309 308 306 306 306 306 307 308 308 309 308 308 308 308 308 309 310 310 310 311 311 312 314 315 314 315 315 316 316 314 313 311
290 286 291 285 285 282 285 289 294 297 297 298 298 303 301 304 306 310 310 308 307 307 306 306 307 308 308 308 309 308 309 309 309 310 312 313 312 313 312 314 316 317 318 317 317 317 315 312 311
293 294 286 285 280 279 282 284 286 292 295 297 295 299 303 302 304 308 311 310 309 309 308 308 308 307 308 308 309 309 309 309 310 311 312 313 314 312 312 312 314 316 318 318 318 316 313 309 307
289 288 289 289 285 280 279 282 292 294 296 296 297 297 300 304 302 304 310 312 310 310 309 309 308 308 308 309 309 309 309 309 310 311 313 314 314 313 314 313 314 315 315 315 313 314 311 309 307
292 290 291 284 283 284 281 284 295 297 297 298 299 298 297 303 305 304 305 310 310 309 310 310 309 308 309 310 310 309 310 311 310 311 314 315 316 317 317 317 316 316 314 312 311 310 308 307 304
Wind_Speed
1 4 2 5 6 6 3 6 3 5 3 4 3 1 4 4 1 4 2 2 3 11 12 13 15 16 16 19 23 23 29 28 25 22 20 20 20 20 22 24 25 24 25 27 27 26 25 25 24
3 2 5 3 7 4 6 4 5 5 4 5 3 2 3 4 3 2 2 5 2 10 10 9 17 16 16 19 22 21 21 25 26 25 20 20 21 21 22 24 24 24 24 25 24 22 22 23 22
3 3 5 6 4 4 5 6 6 4 4 2 2 1 1 3 3 2 1 5 3 9 7 11 19 18 17 17 21 24 25 26 22 25 21 20 20 21 23 24 24 23 23 22 21 19 22 22 20
2 5 5 5 4 8 7 7 5 6 1 2 3 5 1 3 2 3 4 5 5 3 7 8 17 18 18 18 19 21 22 23 23 24 20 20 20 22 22 23 23 23 23 23 22 24 24 21 20
5 3 5 2 5 6 6 6 3 3 4 1 2 3 3 2 5 4 3 2 3 3 4 8 13 17 17 18 18 19 21 23 24 26 20 19 19 21 22 23 22 21 19 20 22 24 22 21 20
5 4 4 2 5 5 6 5 4 5 2 2 2 1 4 1 4 7 3 3 6 6 5 9 13 18 17 16 14 17 16 23 22 28 20 19 18 19 21 22 21 20 18 19 24 23 23 21 20
7 4 4 3 3 6 4 2 5 3 2 4 1 2 2 1 5 5 6 4 4 4 6 3 5 6 11 7 12 16 17 20 21 23 20 19 14 17 20 20 20 20 19 22 23 22 22 20 20
6 5 3 4 2 6 4 2 3 3 5 1 2 4 4 1 4 3 2 2 3 4 10 7 6 6 8 2 20 14 16 20 21 23 18 14 14 16 19 20 20 20 20 21 20 21 20 20 18
4 5 2 5 4 6 3 4 3 0 3 2 2 1 1 3 2 2 3 3 5 8 14 15 9 11 13 12 11 11 17 21 22 19 18 12 6 7 11 15 20 18 18 18 17 19 20 18 17
5 4 9 7 6 8 6 8 6 3 3 5 1 1 2 3 2 4 4 3 3 7 15 13 14 13 16 11 11 5 4 12 12 13 12 7 6 4 8 14 20 18 15 16 18 19 19 14 6
6 6 5 6 11 9 5 4 6 3 5 7 5 7 6 3 2 3 2 4 2 5 9 11 12 16 15 10 9 6 3 2 8 13 9 7 5 4 3 5 7 8 11 5 8 8 6 8 6
3 7 5 7 4 3 5 5 3 7 4 3 6 5 5 6 4 4 4 3 5 6 10 13 13 11 11 8 9 6 4 3 1 8 11 7 4 4 4 5 4 7 4 6 4 5 6 7 7
5 4 4 7 9 5 5 5 4 7 5 4 2 5 4 6 6 4 4 3 4 5 7 13 14 12 11 10 7 5 6 3 2 4 9 8 5 5 3 5 4 5 5 7 5 5 6 7 6
5 4 8 6 4 5 4 1 4 5 7 6 4 2 1 2 4 5 4 6 3 3 8 9 11 11 13 12 12 8 8 6 2 3 3 8 5 5 5 4 5 5 5 4 5 6 6 5 5
2 4 6 5 3 4 5 4 11 6 8 8 6 6 5 3 2 4 4 5 6 4 3 11 11 12 11 11 12 10 8 8 7 5 6 9 6 6 7 5 5 5 5 6 5 5 5 5 4
1 4 3 5 5 1 8 12 6 8 12 9 7 6 6 5 4 4 5 7 5 4 6 4 10 12 11 11 10 9 8 8 9 8 5 8 8 7 7 5 4 5 6 5 4 5 5 4 4
6 4 4 7 4 4 3 9 3 4 5 7 7 9 7 7 6 6 6 6 7 5 5 5 4 16 13 9 6 7 8 8 7 5 6 8 8 7 8 5 4 7 5 5 5 3 4 4 3
5 4 4 6 2 2 4 14 10 7 7 8 8 8 8 8 11 6 7 7 6 6 6 6 4 11 13 9 7 5 5 4 5 5 6 8 8 7 5 4 5 5 4 4 3 4 3 2 3
5 4 4 6 4 3 8 10 17 5 6 9 8 8 8 8 7 8 7 6 7 6 6 7 7 8 10 8 8 7 8 3 3 4 7 6 8 6 6 4 4 4 5 7 6 4 5 2 4
4 3 6 9 7 7 8 11 6 6 8 11 10 9 9 6 8 9 8 8 8 9 7 7 7 11 10 7 6 5 6 3 5 1 4 6 7 7 5 5 5 5 4 5 6 6 3 2 4
5 6 5 8 6 5 3 9 5 4 4 4 8 7 7 11 11 11 13 12 8 7 8 8 8 9 10 11 6 5 2 4 3 3 3 6 7 5 3 4 5 5 5 5 6 7 7 5 4
9 11 8 6 2 4 3 7 7 4 7 6 8 10 11 10 9 10 12 14 14 11 9 8 10 9 9 13 10 12 8 12 7 5 3 3 6 7 6 6 6 6 4 6 6 6 4 5 5
9 8 8 5 5 1 3 2 8 2 7 10 10 14 13 12 13 14 14 14 15 11 11 7 9 8 8 10 12 12 13 10 6 3 5 5 6 8 8 7 6 6 5 5 6 5 6 4 4
4 3 3 2 3 3 7 7 6 5 9 7 6 11 13 13 13 11 11 12 12 11 10 10 10 10 9 7 7 11 14 10 9 5 5 5 4 3 6 7 7 7 5 5 6 6 7 8 4
5 5 1 2 1 6 5 5 9 8 10 10 10 9 12 11 12 12 14 14 14 16 14 12 13 13 11 10 9 10 10 11 12 11 7 6 5 5 8 3 5 4 6 6 6 7 8 8 8
7 8 7 7 4 5 1 6 8 9 10 9 9 7 8 11 12 14 15 15 16 18 17 16 16 15 15 14 13 11 13 10 10 10 9 8 8 8 7 7 6 6 7 6 7 6 7 9 10
5 5 6 6 1 2 5 7 9 8 8 9 9 6 9 12 13 16 14 16 16 16 18 19 18 16 16 16 14 15 14 14 11 12 10 10 9 7 7 8 8 8 9 10 8 8 10 9 9
7 7 4 2 5 5 3 3 6 5 11 8 8 8 10 9 9 10 13 15 15 15 16 16 17 17 15 16 15 13 14 13 11 9 12 11 9 8 7 8 8 9 10 11 12 12 10 10 7
4 3 1 4 5 5 2 6 9 10 5 6 8 7 9 9 9 11 13 13 11 11 14 16 17 19 17 17 16 15 14 13 12 12 11 9 8 8 10 9 9 10 11 10 10 11 10 12 10
5 7 8 5 5 4 4 7 5 9 7 5 7 8 7 9 10 11 10 9 12 14 14 16 14 16 18 15 15 16 13 14 14 15 15 13 13 12 14 12 13 12 11 11 13 12 11 12 10
Wind_Direction
134 110 102 48 54 62 278 263 258 297 310 335 302 256 270 323 211 203 37 305 202 145 139 141 142 135 138 138 127 132 131 128 130 133 134 131 132 132 128 124 123 120 120 119 118 113 108 107 107
134 124 49 78 80 49 275 256 242 238 236 250 259 340 312 306 345 335 322 173 242 145 140 143 138 135 137 134 130 135 136 127 134 132 135 136 136 136 131 126 121 122 123 123 122 117 106 109 107
152 40 83 90 110 172 230 234 251 243 190 277 328 164 278 248 276 272 298 165 145 140 127 158 135 135 138 139 137 144 140 135 135 128 138 139 140 139 133 126 125 124 122 121 122 116 120 111 108
115 11 40 83 228 247 215 255 259 317 142 137 168 271 193 192 255 291 346 170 147 100 119 149 140 141 145 146 149 143 135 133 139 128 138 141 141 138 134 128 126 126 124 123 122 119 117 113 111
36 52 63 65 256 265 244 249 232 279 260 232 92 256 244 258 278 270 34 61 194 165 144 153 143 142 139 135 144 143 138 139 140 129 138 143 142 140 135 127 125 120 123 128 129 126 120 118 115
43 94 71 224 245 258 278 239 195 220 225 295 228 281 237 57 341 311 329 213 216 197 207 162 162 151 145 127 133 131 137 138 135 128 142 142 144 137 132 127 123 120 119 128 134 130 125 122 121
125 97 195 213 257 299 248 196 226 210 11 269 314 271 327 194 286 299 293 263 195 195 177 206 174 173 130 136 168 140 147 146 133 127 142 142 140 135 128 125 122 120 119 126 131 130 126 126 124
115 95 158 239 204 268 231 237 359 135 250 181 123 231 256 292 318 331 37 97 90 67 163 149 86 80 89 65 165 178 158 147 137 134 134 130 136 134 128 127 127 124 120 125 132 132 130 130 127
141 68 217 240 180 249 194 190 171 100 262 212 182 358 192 135 80 85 55 46 88 100 100 102 100 113 124 107 106 153 172 160 143 132 123 124 120 133 129 131 125 119 114 114 123 135 132 126 125
108 137 218 210 205 246 209 194 171 172 209 254 257 191 127 81 223 153 152 83 116 132 127 122 147 135 134 141 132 179 234 172 149 134 134 120 121 140 137 130 123 119 110 110 111 122 124 116 111
172 207 217 248 236 245 232 208 167 164 239 235 216 186 188 162 167 87 92 112 117 128 159 143 144 133 141 156 151 150 81 37 155 124 127 117 126 144 125 120 124 122 108 101 101 109 109 105 110
178 238 214 281 235 167 198 145 205 187 189 230 241 140 157 153 146 146 113 108 118 135 125 142 146 140 147 158 160 133 115 89 151 134 136 136 133 146 143 119 125 121 122 107 112 105 113 104 99
208 260 203 242 283 231 156 211 203 244 158 118 112 144 145 107 127 106 109 92 108 138 128 140 152 149 150 157 154 137 153 144 143 111 150 143 154 154 143 127 145 117 118 126 106 107 111 111 123
208 240 278 263 234 223 192 21 64 243 149 147 157 216 196 147 146 126 161 142 162 132 149 149 146 148 158 162 160 160 164 158 137 118 180 143 148 157 145 142 133 117 115 111 126 129 124 129 125
239 282 308 271 204 230 114 274 232 178 158 169 178 191 214 205 174 173 174 158 167 152 133 162 155 154 159 163 162 162 166 166 171 204 179 150 149 157 153 150 133 143 120 114 112 111 104 105 110
313 60 3 296 129 313 137 277 288 171 160 184 187 197 198 188 222 200 158 148 151 156 153 120 159 162 163 161 170 170 166 180 185 183 172 152 159 161 142 149 150 148 125 136 138 128 110 128 146
3 237 243 311 233 112 185 270 333 128 188 186 187 207 209 206 209 198 173 160 156 163 171 149 165 168 165 149 143 146 142 174 178 166 156 161 157 162 159 149 167 154 137 154 159 129 132 140 144
197 225 234 246 232 67 197 262 266 188 198 220 204 196 208 194 207 215 192 159 150 151 154 143 149 161 157 139 123 110 129 160 152 147 156 161 158 149 138 141 173 133 142 150 141 131 94 139 153
151 183 234 253 220 340 259 261 273 205 212 232 220 208 210 200 184 189 184 154 143 145 151 147 154 151 144 151 151 157 170 149 120 136 148 155 154 129 173 175 152 146 186 175 162 126 153 154 157
154 239 265 296 284 178 286 275 261 189 231 220 216 216 207 163 168 180 176 164 167 159 157 156 164 166 162 145 161 155 165 135 90 146 141 172 126 139 186 157 182 183 182 158 166 151 139 142 179
203 185 225 229 351 255 317 307 280 262 246 210 220 207 194 190 186 178 186 184 166 166 166 170 165 162 151 149 116 77 92 97 93 215 147 228 131 141 135 196 189 194 187 182 180 172 163 165 198
231 194 214 245 81 247 106 271 303 282 271 242 223 216 214 190 182 177 176 184 188 185 176 173 166 171 160 157 155 163 186 170 187 205 167 191 144 181 188 194 196 189 189 192 187 176 169 138 175
234 161 189 213 206 329 221 283 265 32 282 262 237 224 215 197 183 188 185 178 185 178 177 174 170 176 171 178 168 167 180 194 177 181 219 225 191 179 187 196 197 209 192 201 183 171 183 178 160
125 168 157 104 138 240 230 178 264 228 220 257 250 219 215 196 188 190 176 160 173 176 179 171 178 191 184 182 173 176 185 179 180 196 205 224 254 252 196 183 185 198 186 193 195 195 195 198 194
123 101 344 346 348 228 216 162 245 262 249 231 257 246 218 202 189 176 167 174 171 180 180 182 183 194 195 189 188 189 196 199 200 206 203 191 217 236 251 215 189 187 200 195 186 190 206 196 202
188 157 158 196 193 245 115 227 248 239 263 254 241 243 197 199 195 193 184 179 183 183 182 183 188 196 194 197 202 196 200 203 207 206 212 217 222 222 211 213 206 200 198 196 198 202 208 206 216
202 167 192 95 26 62 230 285 305 282 274 286 255 183 210 205 199 199 187 186 182 188 187 185 186 195 200 201 201 205 206 209 213 214 206 210 213 210 201 202 200 201 205 192 198 225 229 207 210
165 167 102 12 174 222 255 262 230 301 278 307 302 212 224 214 210 199 198 195 190 187 189 189 188 194 193 197 205 207 209 211 215 214 221 221 225 208 199 200 205 221 221 221 214 222 218 200 208
154 204 95 154 146 189 203 255 216 227 260 286 298 290 228 208 202 206 206 204 195 188 186 191 191 188 195 202 201 206 205 207 209 217 221 211 205 199 202 202 208 213 216 216 209 217 217 215 203
165 200 176 178 234 226 178 246 232 219 216 234 268 261 231 216 202 207 202 181 187 198 198 198 199 200 203 198 198 203 208 209 209 216 218 214 214 207 211 203 210 215 218 205 210 214 205 200 195